Weather History for KNDZ - February, 2013

Change the Weather History Date:

Tuesday, February 26, 2013

  Actual Average (KPNS) Record (KPNS)
Temperature  
Mean Temperature 58 °F 57 °F  
Max Temperature 66 °F 66 °F 82 °F (1972)
Min Temperature 50 °F 48 °F 26 °F (1967)
Degree Days  
Heating Degree Days 7 9  
Month to date heating degree days 282  
Since 1 July heating degree days 1293  
Cooling Degree Days 0 0  
Month to date cooling degree days 0  
Year to date cooling degree days 6  
Growing Degree Days 8 (Base 50)    
Moisture  
Dew Point 48 °F    
Average Humidity 70    
Maximum Humidity 94    
Minimum Humidity 43    
Precipitation  
Precipitation 0.20 in 0.18 in 2.01 in (2003)
Month to date precipitation 4.69  
Year to date precipitation 9.32  
Snow  
Snow 0.00 in 0.00 in - ()
Month to date snowfall 0.0  
Since 1 July snowfall 0.0  
Snow Depth -    
Sea Level Pressure  
Sea Level Pressure 29.66 in    
Wind  
Wind Speed 8 mph (SW)    
Max Wind Speed 14 mph    
Max Gust Speed 22 mph    
Visibility 9 miles    
Events Rain    
T = Trace of Precipitation, MM = Missing Value Source: NWS Daily Summary

Daily Weather History Graph

Daily Weather History Graph

Search for Another Location

Airport or City:

Trip Planner

Search our weather history database for the weather conditions in past years. The results will help you decide how hot, cold, wet, or windy it might be!

Date:

Astronomy

Feb. 26, 2013 Rise Set
Actual Time 6:17 AM CST 5:44 PM CST
Civil Twilight 5:53 AM CST 6:09 PM CST
Nautical Twilight 5:25 AM CST 6:37 PM CST
Astronomical Twilight 4:57 AM CST 7:04 PM CST
Moon 6:51 PM CST (2/26) 6:26 AM CST (2/26)
Length of Visible Light 12h 15m
Length of Day
11h 27m
Full, 99% of the Moon is Illuminated
Feb 26
Full
Mar 4
Last Quarter
Mar 11
New
Mar 19
First Quarter
Mar 27
Full

Hourly Weather History & Observations

Time (CST) Temp. Dew Point Humidity Pressure Visibility Wind Dir Wind Speed Gust Speed Precip Events Conditions
12:04 AM 66.2 °F 64.4 °F 94% 29.54 in 3.0 mi SSE 12.7 mph - 0.04 in Rain Heavy Rain
12:12 AM 66.2 °F 64.4 °F 94% 29.54 in 4.0 mi SSE 12.7 mph - 0.07 in Rain Heavy Rain
12:19 AM 66.2 °F 64.4 °F 94% 29.55 in 5.0 mi South 13.8 mph 20.7 mph 0.11 in Rain Rain
12:42 AM 66.2 °F 64.4 °F 94% 29.56 in 8.0 mi SSW 6.9 mph 17.3 mph 0.19 in Rain Light Rain
12:56 AM 66.9 °F 64.9 °F 93% 29.51 in 7.0 mi SSW 5.8 mph - 0.20 in Rain Light Rain
1:56 AM 66.0 °F 64.0 °F 93% 29.49 in 10.0 mi SSW 5.8 mph - 0.00 in   Mostly Cloudy
2:04 AM 66.2 °F 62.6 °F 88% 29.53 in 10.0 mi SW 6.9 mph - N/A   Mostly Cloudy
2:56 AM 64.0 °F 57.0 °F 78% 29.50 in 10.0 mi Variable 5.8 mph - N/A   Mostly Cloudy
3:56 AM 61.0 °F 54.0 °F 78% 29.53 in 10.0 mi SW 4.6 mph - N/A   Mostly Cloudy
4:56 AM 57.9 °F 48.9 °F 72% 29.55 in 10.0 mi Variable 4.6 mph - N/A   Partly Cloudy
5:56 AM 55.9 °F 46.9 °F 72% 29.57 in 10.0 mi Variable 4.6 mph - N/A   Clear
6:56 AM 55.9 °F 45.0 °F 67% 29.60 in 10.0 mi Variable 5.8 mph - N/A   Clear
7:56 AM 55.9 °F 44.1 °F 64% 29.64 in 10.0 mi WSW 8.1 mph - N/A   Clear
8:56 AM 57.0 °F 41.0 °F 55% 29.66 in 10.0 mi West 8.1 mph 16.1 mph N/A   Scattered Clouds
9:56 AM 57.0 °F 39.9 °F 53% 29.68 in 10.0 mi WSW 9.2 mph 20.7 mph N/A   Clear
10:56 AM 59.0 °F 39.0 °F 48% 29.69 in 10.0 mi SW 8.1 mph 17.3 mph N/A   Clear
11:56 AM 60.1 °F 37.9 °F 44% 29.69 in 10.0 mi WSW 11.5 mph 21.9 mph N/A   Clear
12:56 PM 60.1 °F 37.9 °F 44% 29.68 in 10.0 mi Variable 6.9 mph 18.4 mph N/A   Clear
1:56 PM 62.1 °F 39.0 °F 43% 29.67 in 10.0 mi Variable 6.9 mph - N/A   Clear
2:56 PM 60.1 °F 39.9 °F 47% 29.68 in 10.0 mi WSW 10.4 mph - N/A   Clear
3:56 PM 57.0 °F 42.1 °F 57% 29.70 in 10.0 mi SSW 10.4 mph 18.4 mph N/A   Clear
4:56 PM 55.0 °F 42.1 °F 62% 29.73 in 10.0 mi SW 9.2 mph 17.3 mph N/A   Clear
5:56 PM 54.0 °F 42.1 °F 64% 29.75 in 10.0 mi SW 4.6 mph - N/A   Clear
6:56 PM 52.0 °F 42.1 °F 69% 29.78 in 10.0 mi Variable 5.8 mph - N/A   Clear
7:56 PM 53.1 °F 42.1 °F 66% 29.81 in 10.0 mi Variable 3.5 mph - N/A   Clear
8:56 PM 52.0 °F 42.1 °F 69% 29.84 in 10.0 mi Variable 3.5 mph - N/A   Clear
9:56 PM 51.1 °F 42.1 °F 71% 29.86 in 10.0 mi Calm Calm - N/A   Clear
10:56 PM 50.0 °F 43.0 °F 77% 29.88 in 10.0 mi Calm Calm - N/A   Clear
11:56 PM 50.0 °F 43.0 °F 77% 29.89 in 10.0 mi NW 4.6 mph - N/A   Clear